Showing default

OCO 2, 40059

Orbit data source: Space-Track

OCO 2, 40059 is a payload satellite owned by GSFC (US) in SSO that was launched on Wed, 02 Jul 2014 UTC via a DELTA 7320-10C launch vehicle from the Air Force Western Test Range (AFWTR). Payload-class satellites include a variety of spacecraft equipped with specific instruments for various scientific and technological missions. These include communications satellites like Starlink; space stations such as the ISS; scientific satellites like the Hubble; Earth observation satellites from companies like Planet Labs, Umbra, and HawkEye 360; GPS; miniature CubeSats for education and research; and military/defense satellites.

Loading next visibility...
Identifier
40059, 2014-035A
Orbit
SSO
Country
Flag of USUS
Related business
Manufacturer
OSC
Mission
Operational Civil Science
Bus & Motor
LEOSTAR-2, AOCS
Mass
454 kg wet, 409 kg dry
Launch date (UTC)
2014-07-02 (11 years ago)
Launch vehicle
DELTA 7320-10C
Launch site
Air Force Western Test Range (AFWTR)
Object type
Payload
Rocket body
Debris
Shape & HBR
Hex Cyl + 2 Pan, 4.5 m
Radar Cross Section
3.820 m², Large (>1 m²)

Expand to show TLE details & history
Last TLE update: 14 hours ago

TLE from 14 hours ago
0 OCO 2
1 40059U 14035A   25301.60126671  .00000890  00000-0  20771-3 0  9998
2 40059  98.2141 241.1583 0001769  74.3479 285.7914 14.57073150602328
Epoch: 2025-10-28T14:25Z
TLE epoch observation values (Epoch: 2025-10-28T14:25:49.443Z)
Latitude
-0.00009°
Longitude
-12.48412°
Altitude
705.28 km
Speed
7.503 km/s
True Right ascension
16h 04m 37s
True Declination
0° 00' 00"
Sunlit
Object was in daylight at epoch
Visualization orbit readout
Latitude
Unknown
Longitude
Unknown
Altitude
Unknown
Speed
Unknown
Apparent Right ascension
Unknown
Apparent Declination
Unknown
Sunlit
N/A
Visualization observer readout
Local Sidereal Time
00:19:33
Azimuth
Unknown
Elevation
Unknown
Doppler factor
Unknown
Orbital elements
Apogee altitude
700.978 km
Perigee altitude
698.474 km
Semi-major axis
7,077.863 km
Eccentricity
0.00018
Inclination
98.2141°
RAAN
241.1583°
Arg. of periapsis
74.3479°
True anomaly
285.77189°
Mean anomaly
285.7914°
Eccentric anomaly
285.78165°
Mean motion
3.64494 °/min
Orbital period
98.77 mins
BSTAR
0.00020771
Loading maneuver chart data...
Computing Atmospheric mass density...
Loading historical data...
Loading historical data...
Loading historical data...
Loading historical data...
Loading historical data...
Loading historical data...
Loading historical data...
Other satellites on launch #35 in the year 2014 (2014-07-02 UTC)

Documentation

Showing up to 5 results
|